�N����,����,�~����,�C��,���x,�C��,����,���ϕ���,�ő�u�ԕ���,�ő厞����,���˗�,�I�_���x,�n�����x,�ő啗���N��,DTYPE
"21/04/08","00:10",0.0,9.8,72.4,1012.1,4.3,0.8,2.4,350.5,0.00,5.1,130.0,"00:09:20",1
"21/04/08","00:20",0.0,8.8,73.5,1011.6,324.4,2.5,3.6,319.3,0.00,4.4,130.0,"00:18:40",1
"21/04/08","00:30",0.0,9.1,75.0,1011.6,302.4,3.4,4.9,310.8,0.00,4.9,130.0,"00:26:48",1
"21/04/08","00:40",0.0,8.6,75.8,1011.6,291.6,2.8,3.7,315.4,0.00,4.6,130.0,"00:39:12",1
"21/04/08","00:50",0.0,8.3,76.7,1011.6,303.1,2.7,4.5,317.5,0.00,4.5,130.0,"00:40:08",1
"21/04/08","01:00",0.0,8.2,77.3,1011.6,279.4,1.6,2.0,274.8,0.00,4.5,130.0,"00:52:00",1
"21/04/08","01:10",0.0,8.1,78.1,1011.6,280.8,1.5,2.1,268.5,0.00,4.6,130.0,"01:06:08",1
"21/04/08","01:20",0.0,8.1,79.0,1011.6,299.6,2.0,3.1,317.1,0.00,4.7,130.0,"01:16:48",1
"21/04/08","01:30",0.0,8.2,80.0,1011.4,313.0,2.5,3.7,333.1,0.00,5.0,130.0,"01:29:28",1
"21/04/08","01:40",0.0,8.6,80.4,1011.2,317.2,3.7,4.8,321.9,0.00,5.5,130.0,"01:34:40",1
"21/04/08","01:50",0.0,8.2,80.7,1011.2,326.9,3.1,4.7,324.2,0.00,5.1,130.0,"01:41:04",1
"21/04/08","02:00",0.0,7.8,81.4,1011.6,295.7,2.1,2.8,304.1,0.00,4.9,130.0,"01:56:40",1
"21/04/08","02:10",0.0,7.7,82.3,1011.2,307.9,2.6,3.5,324.4,0.00,4.9,130.0,"02:04:08",1
"21/04/08","02:20",0.0,7.7,83.2,1011.4,322.4,2.7,4.2,332.5,0.00,5.1,130.0,"02:13:04",1
"21/04/08","02:30",0.0,7.4,83.8,1011.4,319.9,2.3,3.3,324.4,0.00,4.9,130.0,"02:20:48",1
"21/04/08","02:40",0.0,7.5,84.4,1011.4,339.5,2.5,4.5,336.6,0.00,5.1,130.0,"02:32:56",1
"21/04/08","02:50",0.0,7.5,84.7,1011.4,332.4,2.6,4.0,329.2,0.00,5.1,130.0,"02:49:04",1
"21/04/08","03:00",0.0,7.6,84.8,1011.4,314.3,2.1,2.9,313.1,0.00,5.2,130.0,"02:57:28",1
"21/04/08","03:10",0.0,7.6,85.1,1011.4,320.4,3.4,6.2,334.3,0.00,5.3,130.0,"03:09:20",1
"21/04/08","03:20",0.0,8.1,84.9,1011.6,325.5,5.2,6.6,336.6,0.00,5.8,130.0,"03:10:24",1
"21/04/08","03:30",0.0,7.8,84.8,1011.4,331.0,3.1,5.0,336.2,0.00,5.4,130.0,"03:20:56",1
"21/04/08","03:40",0.0,7.6,84.9,1011.2,328.5,2.2,3.3,325.0,0.00,5.3,130.0,"03:31:28",1
"21/04/08","03:50",0.0,7.4,85.2,1011.2,325.8,2.0,3.1,332.8,0.00,5.1,130.0,"03:48:40",1
"21/04/08","04:00",0.0,7.2,85.7,1011.4,342.4,2.0,2.9,20.2,0.00,5.0,130.0,"03:57:04",1
"21/04/08","04:10",0.0,7.0,86.1,1011.4,326.3,2.2,3.2,329.7,0.00,4.9,130.0,"04:04:24",1
"21/04/08","04:20",0.0,7.1,86.7,1011.6,311.8,2.7,3.6,316.6,0.00,5.1,130.0,"04:14:16",1
"21/04/08","04:30",0.0,7.2,86.8,1011.4,304.8,2.5,3.5,311.4,0.00,5.2,130.0,"04:26:16",1
"21/04/08","04:40",0.0,7.1,87.1,1011.6,306.9,2.6,4.2,312.7,0.00,5.1,130.0,"04:30:02",1
"21/04/08","04:50",0.0,6.9,87.3,1011.6,322.1,2.6,4.0,319.6,0.00,5.0,130.0,"04:40:08",1
"21/04/08","05:00",0.0,6.8,87.7,1011.6,319.2,3.1,4.4,326.0,0.00,4.9,130.0,"04:56:32",1
"21/04/08","05:10",0.0,6.7,88.1,1011.6,325.3,2.0,2.9,333.8,0.00,4.9,130.0,"05:01:04",1
"21/04/08","05:20",0.0,6.6,88.4,1011.6,310.0,2.3,3.5,344.0,0.00,4.9,130.0,"05:12:40",1
"21/04/08","05:30",0.0,6.5,88.9,1011.9,302.0,2.5,4.2,325.5,0.00,4.8,130.0,"05:29:12",1
"21/04/08","05:40",0.0,6.7,89.2,1012.1,319.1,3.2,4.5,308.6,0.00,5.1,130.0,"05:30:08",1
"21/04/08","05:50",0.0,6.6,89.5,1011.9,325.7,1.7,3.3,334.6,0.00,5.0,130.0,"05:41:44",1
"21/04/08","06:00",0.0,6.7,89.9,1012.3,324.3,2.3,4.0,302.0,0.00,5.2,130.0,"05:58:48",1
"21/04/08","06:10",0.0,6.8,90.2,1012.3,311.0,2.6,3.9,317.8,0.00,5.3,130.0,"06:00:40",1
"21/04/08","06:20",0.0,6.8,90.4,1012.6,311.5,1.8,2.4,312.5,0.00,5.4,130.0,"06:10:08",1
"21/04/08","06:30",0.0,7.0,90.7,1012.3,311.6,1.8,3.1,328.1,0.01,5.6,130.0,"06:29:36",1
"21/04/08","06:40",0.0,7.4,90.9,1012.6,301.1,2.2,3.7,318.6,0.03,6.1,130.0,"06:34:40",1
"21/04/08","06:50",0.0,7.7,90.9,1012.6,294.6,2.0,2.7,299.2,0.03,6.3,130.0,"06:42:48",1
"21/04/08","07:00",0.0,8.2,90.8,1012.6,311.4,2.2,3.1,329.2,0.05,6.8,130.0,"06:59:12",1
"21/04/08","07:10",0.0,8.8,90.7,1013.0,313.4,1.7,2.6,306.1,0.06,7.4,130.0,"07:00:16",1
"21/04/08","07:20",0.0,9.6,90.5,1013.3,310.5,1.3,2.0,321.1,0.09,8.2,130.0,"07:13:20",1
"21/04/08","07:30",0.0,9.9,89.8,1013.0,289.3,1.3,2.0,322.2,0.09,8.3,130.0,"07:27:04",1
"21/04/08","07:40",0.0,10.3,88.8,1013.3,287.5,1.3,2.8,301.9,0.11,8.6,130.0,"07:38:24",1
"21/04/08","07:50",0.0,11.1,87.8,1013.3,303.5,0.6,1.3,286.9,0.14,9.2,130.0,"07:47:12",1
"21/04/08","08:00",0.0,11.5,85.7,1013.5,319.9,0.5,1.1,106.5,0.17,9.2,130.0,"07:59:44",1
"21/04/08","08:10",0.0,11.8,83.3,1013.5,347.9,0.5,0.9,97.6,0.19,9.1,130.0,"08:00:08",1
"21/04/08","08:20",0.0,12.4,80.2,1013.5,265.8,0.5,0.8,0.5,0.21,9.1,130.0,"08:10:16",1
"21/04/08","08:30",0.0,12.7,76.4,1013.8,227.5,0.6,1.4,237.3,0.24,8.7,130.0,"08:21:20",1
"21/04/08","08:40",0.0,13.4,73.5,1013.5,235.3,0.5,1.3,198.0,0.28,8.8,130.0,"08:33:36",1
"21/04/08","08:50",0.0,13.6,71.9,1013.0,208.1,0.8,2.0,214.6,0.29,8.7,130.0,"08:47:52",1
"21/04/08","09:00",0.0,14.0,69.6,1013.0,334.3,0.8,2.1,139.1,0.33,8.6,130.0,"08:56:00",1
"21/04/08","09:10",0.0,14.2,68.0,1013.0,196.3,0.8,2.0,218.0,0.30,8.4,130.0,"09:07:28",1
"21/04/08","09:20",0.0,14.4,67.5,1012.8,213.4,0.6,1.8,148.5,0.30,8.5,130.0,"09:10:16",1
"21/04/08","09:30",0.0,14.4,67.3,1012.8,207.4,1.1,2.6,158.4,0.33,8.5,130.0,"09:21:52",1
"21/04/08","09:40",0.0,15.0,66.5,1012.3,195.6,0.8,3.2,124.4,0.35,8.9,130.0,"09:39:36",1
"21/04/08","09:50",0.0,15.2,65.9,1012.3,100.8,0.8,2.5,149.9,0.41,8.9,130.0,"09:48:00",1
"21/04/08","10:00",0.0,15.4,65.5,1012.1,159.7,1.2,2.8,136.6,0.45,9.0,130.0,"09:56:32",1
"21/04/08","10:10",0.0,15.8,64.8,1011.9,146.2,1.5,3.3,200.3,0.49,9.2,130.0,"10:04:00",1
"21/04/08","10:20",0.0,16.3,63.2,1011.9,177.3,1.5,3.6,122.0,0.51,9.3,130.0,"10:15:44",1
"21/04/08","10:30",0.0,16.3,60.5,1011.6,147.0,1.5,2.6,120.1,0.50,8.7,130.0,"10:22:48",1
"21/04/08","10:40",0.0,16.7,59.5,1011.9,154.2,1.6,3.6,137.3,0.54,8.8,130.0,"10:32:56",1
"21/04/08","10:50",0.0,17.1,57.5,1011.2,216.0,1.2,2.7,126.7,0.54,8.7,130.0,"10:42:00",1
"21/04/08","11:00",0.0,17.2,54.9,1011.4,189.1,1.7,3.4,119.9,0.54,8.1,130.0,"10:58:48",1
"21/04/08","11:10",0.0,17.4,55.0,1010.9,180.2,1.7,3.4,177.8,0.58,8.3,130.0,"11:07:04",1
"21/04/08","11:20",0.0,18.3,55.9,1010.7,169.5,1.2,2.9,180.5,0.59,9.4,130.0,"11:17:52",1
"21/04/08","11:30",0.0,18.2,52.0,1010.7,149.6,1.3,4.0,171.8,0.60,8.2,130.0,"11:29:36",1
"21/04/08","11:40",0.0,18.5,53.6,1010.0,111.8,1.5,3.9,156.1,0.60,9.0,130.0,"11:30:56",1
"21/04/08","11:50",0.0,18.4,53.2,1010.0,138.9,2.1,4.9,102.9,0.61,8.8,130.0,"11:42:08",1
"21/04/08","12:00",0.0,18.6,52.2,1010.0,178.4,2.1,4.2,156.8,0.62,8.7,130.0,"11:56:16",1
"21/04/08","12:10",0.0,18.8,50.7,1009.7,137.9,2.1,4.3,121.2,0.58,8.4,130.0,"12:09:52",1
"21/04/08","12:20",0.0,19.0,48.1,1009.5,144.1,2.0,3.6,119.9,0.58,7.8,130.0,"12:12:00",1
"21/04/08","12:30",0.0,19.1,44.9,1009.3,121.1,2.6,4.7,130.3,0.59,6.9,130.0,"12:28:08",1
"21/04/08","12:40",0.0,20.2,44.1,1009.0,191.4,1.8,4.8,162.2,0.63,7.6,130.0,"12:39:52",1
"21/04/08","12:50",0.0,20.0,44.0,1008.6,161.8,3.6,7.1,122.1,0.56,7.4,130.0,"12:42:16",1
"21/04/08","13:00",0.0,19.8,45.0,1008.6,181.4,2.5,4.8,168.8,0.39,7.6,130.0,"12:51:04",1
"21/04/08","13:10",0.0,20.1,41.4,1008.3,190.5,3.2,5.4,220.1,0.46,6.6,130.0,"13:02:08",1
"21/04/08","13:20",0.0,19.9,40.8,1008.1,239.4,2.8,4.9,227.3,0.45,6.2,130.0,"13:12:00",1
"21/04/08","13:30",0.0,20.8,39.8,1007.8,285.4,2.1,6.6,235.2,0.56,6.7,130.0,"13:27:12",1
"21/04/08","13:40",0.0,20.8,39.6,1007.8,239.7,2.8,6.5,327.9,0.57,6.6,130.0,"13:37:52",1
"21/04/08","13:50",0.0,20.9,39.3,1007.6,274.8,2.5,5.4,228.7,0.52,6.6,130.0,"13:40:24",1
"21/04/08","14:00",0.0,21.3,35.0,1007.1,225.7,2.2,5.8,219.2,0.55,5.3,130.0,"13:59:36",1
"21/04/08","14:10",0.0,20.5,35.0,1007.6,218.8,3.5,6.4,213.1,0.48,4.6,130.0,"14:01:44",1
"21/04/08","14:20",0.0,20.7,35.7,1007.1,193.7,3.0,7.9,153.0,0.47,5.0,130.0,"14:17:04",1
"21/04/08","14:30",0.0,20.8,31.8,1006.9,200.4,2.6,7.0,167.2,0.48,3.5,130.0,"14:20:02",1
"21/04/08","14:40",0.0,20.9,34.0,1007.1,191.1,3.2,6.7,180.8,0.43,4.5,130.0,"14:30:32",1
"21/04/08","14:50",0.0,21.2,29.0,1006.9,285.2,2.3,5.5,333.2,0.42,2.5,130.0,"14:47:04",1
"21/04/08","15:00",0.0,21.2,29.3,1007.1,275.0,2.6,6.4,220.0,0.39,2.7,130.0,"14:52:16",1
"21/04/08","15:10",0.0,20.9,27.8,1006.7,284.5,2.6,6.0,181.6,0.32,1.7,130.0,"15:09:12",1
"21/04/08","15:20",0.0,20.9,28.4,1006.7,269.4,2.6,5.0,232.3,0.33,2.0,130.0,"15:19:20",1
"21/04/08","15:30",0.0,21.0,28.5,1006.4,266.8,2.7,5.7,225.6,0.33,2.1,130.0,"15:21:52",1
"21/04/08","15:40",0.0,20.7,29.5,1006.4,256.6,3.0,6.2,238.6,0.27,2.3,130.0,"15:31:28",1
"21/04/08","15:50",0.0,20.4,30.0,1006.4,284.8,3.0,5.5,303.6,0.19,2.3,130.0,"15:41:12",1
"21/04/08","16:00",0.0,20.4,30.5,1006.4,278.4,2.0,4.8,334.0,0.18,2.5,130.0,"15:58:48",1
"21/04/08","16:10",0.0,20.3,30.1,1006.4,254.1,2.2,6.0,237.2,0.17,2.3,130.0,"16:07:12",1
"21/04/08","16:20",0.0,20.1,30.4,1006.7,282.8,2.6,5.4,319.5,0.13,2.2,130.0,"16:19:12",1
"21/04/08","16:30",0.0,19.7,30.7,1006.9,306.1,2.5,5.4,335.5,0.06,2.0,130.0,"16:26:16",1
"21/04/08","16:40",0.0,19.2,31.5,1007.1,299.1,2.7,6.5,337.6,0.01,1.9,130.0,"16:39:36",1
"21/04/08","16:50",0.0,17.7,41.1,1007.4,346.4,4.1,9.8,338.0,0.00,4.4,130.0,"16:43:20",1
"21/04/08","17:00",0.0,16.7,46.6,1008.1,1.7,3.6,6.6,327.1,0.00,5.3,130.0,"16:52:48",1
"21/04/08","17:10",0.2,15.4,55.9,1009.0,325.6,4.9,10.0,321.9,0.00,6.7,130.0,"17:04:42",1
"21/04/08","17:20",0.0,14.6,62.3,1008.8,338.0,4.1,6.3,345.8,0.03,7.5,130.0,"17:16:48",1
"21/04/08","17:30",0.0,14.3,66.2,1009.0,339.6,3.1,5.0,331.3,0.03,8.1,130.0,"17:29:44",1
"21/04/08","17:40",0.0,13.8,69.5,1009.0,327.0,4.0,7.8,343.7,0.00,8.4,130.0,"17:36:24",1
"21/04/08","17:50",0.6,13.2,72.2,1009.3,329.1,3.1,4.9,340.5,0.00,8.3,130.0,"17:49:36",1
"21/04/08","18:00",0.4,12.8,75.2,1009.0,341.0,2.5,6.5,343.7,0.00,8.6,130.0,"17:51:52",1
"21/04/08","18:10",0.4,12.3,79.0,1009.5,323.7,2.2,5.1,317.5,0.00,8.8,130.0,"18:05:20",1
"21/04/08","18:20",0.2,12.0,81.8,1009.0,345.8,2.2,4.5,328.8,0.00,9.0,130.0,"18:10:46",1
"21/04/08","18:30",0.2,12.0,83.6,1009.5,320.5,1.8,3.5,348.7,0.00,9.4,130.0,"18:21:52",1
"21/04/08","18:40",0.0,11.9,85.0,1009.5,275.4,1.7,3.6,232.7,0.00,9.5,130.0,"18:39:52",1
"21/04/08","18:50",0.0,11.7,85.8,1009.3,289.7,1.5,4.0,232.4,0.00,9.4,130.0,"18:40:16",1
"21/04/08","19:00",0.0,11.3,86.8,1009.7,334.9,2.6,4.2,334.0,0.00,9.2,130.0,"18:51:12",1
"21/04/08","19:10",0.0,11.0,87.7,1010.0,327.6,2.7,4.1,338.0,0.00,9.1,130.0,"19:09:04",1
"21/04/08","19:20",0.0,10.8,88.4,1010.0,315.4,2.8,4.5,317.0,0.00,9.0,130.0,"19:18:00",1
"21/04/08","19:30",0.0,10.8,88.8,1010.2,300.1,1.8,3.4,323.2,0.00,9.1,130.0,"19:20:32",1
"21/04/08","19:40",0.0,10.7,89.3,1010.0,306.9,1.5,2.8,316.6,0.00,9.1,130.0,"19:39:28",1
"21/04/08","19:50",0.0,10.6,89.8,1010.9,297.3,2.1,3.5,331.4,0.00,9.0,130.0,"19:49:20",1
"21/04/08","20:00",0.0,10.6,90.1,1010.9,320.2,3.7,4.8,324.3,0.00,9.1,130.0,"19:55:36",1
"21/04/08","20:10",0.0,10.4,90.3,1011.2,332.3,2.7,4.9,326.9,0.00,8.9,130.0,"20:07:44",1
"21/04/08","20:20",0.0,10.2,90.5,1010.9,325.3,2.5,4.0,336.0,0.00,8.8,130.0,"20:10:08",1
"21/04/08","20:30",0.0,10.2,90.7,1010.9,324.5,2.2,3.2,332.2,0.00,8.8,130.0,"20:25:28",1
"21/04/08","20:40",0.0,10.0,90.8,1011.2,331.0,2.1,3.5,349.6,0.00,8.6,130.0,"20:32:24",1
"21/04/08","20:50",0.0,9.9,91.0,1011.6,329.6,2.1,2.9,341.1,0.00,8.5,130.0,"20:47:38",1
"21/04/08","21:00",0.0,9.8,91.2,1011.4,324.9,2.5,3.4,324.7,0.00,8.5,130.0,"20:54:48",1
"21/04/08","21:10",0.0,9.8,91.4,1011.9,328.6,2.2,3.6,342.1,0.00,8.5,130.0,"21:07:34",1
"21/04/08","21:20",0.0,9.5,91.6,1011.4,330.6,1.8,3.2,344.8,0.00,8.2,130.0,"21:14:32",1
"21/04/08","21:30",0.0,9.3,91.8,1011.6,323.0,1.7,2.7,336.2,0.00,8.1,130.0,"21:26:44",1
"21/04/08","21:40",0.0,9.2,92.0,1011.6,329.9,1.6,1.9,338.1,0.00,8.0,130.0,"21:34:26",1
"21/04/08","21:50",0.0,9.0,92.2,1011.4,329.8,1.2,1.3,319.3,0.00,7.8,130.0,"21:44:26",1
"21/04/08","22:00",0.0,8.8,92.3,1011.9,314.4,1.2,1.7,309.7,0.00,7.7,130.0,"21:55:46",1
"21/04/08","22:10",0.0,8.7,92.6,1011.4,301.4,1.6,2.0,301.7,0.00,7.6,130.0,"22:01:32",1
"21/04/08","22:20",0.0,8.8,92.9,1011.6,334.0,1.6,1.9,347.3,0.00,7.8,130.0,"22:14:56",1
"21/04/08","22:30",0.0,8.7,93.0,1011.6,328.4,1.6,2.0,310.6,0.00,7.7,130.0,"22:29:34",1
"21/04/08","22:40",0.0,8.4,93.3,1012.3,327.3,1.8,3.4,326.0,0.00,7.4,130.0,"22:30:02",1
"21/04/08","22:50",0.0,8.6,93.5,1012.1,321.9,2.7,4.1,320.6,0.00,7.7,130.0,"22:40:10",1
"21/04/08","23:00",0.0,8.7,93.5,1012.1,325.9,2.1,2.8,336.8,0.00,7.8,130.0,"22:53:58",1
"21/04/08","23:10",0.0,8.8,93.6,1012.3,330.4,2.5,3.5,321.8,0.00,7.9,130.0,"23:04:40",1
"21/04/08","23:20",0.0,8.9,93.5,1012.1,324.9,2.5,3.5,325.0,0.00,7.9,130.0,"23:12:46",1
"21/04/08","23:30",0.0,8.8,93.5,1012.3,334.1,1.8,3.5,323.4,0.00,7.9,130.0,"23:21:22",1
"21/04/08","23:40",0.0,8.4,93.6,1012.6,337.5,1.5,2.2,346.6,0.00,7.5,130.0,"23:35:02",1
"21/04/08","23:50",0.0,8.2,93.7,1012.6,338.8,1.6,2.5,344.7,0.00,7.3,130.0,"23:40:20",1
"21/04/08","24:00",0.0,7.8,93.9,1012.3,331.4,1.6,2.6,330.4,0.00,6.9,130.0,"23:53:30",1
